Wind_Speed
21 21 21 20 20 13 11 10 9 9 8 8 7 7 8 8 9 9 8 8 8 8 8 8 8 7 7 8 8 9 9 10 11 11 11 11 11 12 13 12 11 12 12 11 11 12 12 12 11
20 20 22 22 16 13 12 11 10 10 9 9 9 9 8 9 9 10 9 10 9 9 9 9 8 8 7 7 8 8 9 10 10 11 11 11 12 13 13 12 12 12 12 12 12 12 12 11 11
21 21 22 18 13 12 12 12 11 11 10 10 10 10 10 10 11 11 10 10 10 9 9 9 8 8 8 7 7 8 9 9 10 10 10 11 11 12 12 12 13 12 12 12 11 12 11 11 11
21 23 21 15 12 12 13 13 12 11 11 11 10 10 10 11 11 11 10 10 10 10 10 10 9 8 8 8 7 7 9 9 10 10 10 11 11 12 13 13 12 12 12 12 12 12 11 11 11
23 21 16 13 12 12 13 13 13 12 11 12 11 11 11 10 10 10 10 10 10 10 10 10 10 8 8 8 8 8 8 10 10 10 10 11 12 13 13 14 13 12 12 12 12 12 11 11 11
21 16 13 12 12 13 13 13 13 12 12 13 12 11 11 11 11 10 10 10 10 10 10 10 10 10 9 8 9 9 9 10 11 11 11 12 13 12 12 12 12 12 12 12 12 13 12 11 10
17 14 13 11 12 14 13 13 13 14 14 13 13 12 12 11 11 11 10 10 10 10 10 10 10 9 9 9 10 10 10 11 11 11 11 11 11 11 11 12 11 11 11 11 11 12 11 10 9
14 13 12 11 12 13 13 14 14 14 13 13 13 13 12 12 12 11 10 10 10 10 10 10 10 9 9 9 10 10 10 10 10 10 10 10 10 10 10 11 11 11 11 11 10 10 10 9 8
10 11 9 9 11 12 13 14 14 14 14 15 14 14 13 12 12 12 11 11 11 10 10 10 9 9 10 9 9 9 9 9 9 10 10 10 10 10 10 10 10 10 10 10 9 9 8 8 7
8 9 8 8 10 11 13 13 14 14 15 15 15 14 13 12 12 12 12 12 11 11 11 10 10 9 10 9 9 9 8 9 9 10 10 10 10 10 10 9 9 9 8 8 8 7 7 6 6
6 7 7 9 10 11 13 13 13 14 14 15 15 14 13 12 12 12 12 12 11 11 11 10 10 9 9 9 9 9 8 8 8 9 9 9 9 8 8 8 8 7 7 7 6 6 6 5 5
5 7 7 8 10 11 12 12 12 13 14 15 15 14 13 12 11 12 12 12 11 11 10 11 10 10 9 9 9 9 8 8 8 8 8 7 8 7 7 7 6 6 5 5 5 4 4 4 4
5 6 7 9 10 11 12 12 12 13 14 14 15 14 13 13 12 12 12 11 11 11 10 10 10 9 9 9 9 8 8 7 7 6 6 7 7 6 7 7 5 5 5 4 3 3 3 3 3
4 5 7 9 10 10 11 12 12 13 13 14 15 15 15 13 12 12 12 11 11 10 10 10 9 9 9 8 8 8 7 7 6 5 5 5 5 5 6 6 5 5 4 3 3 2 2 2 1
3 4 6 8 10 10 11 11 12 13 14 14 14 15 14 13 13 12 11 11 10 10 10 9 8 8 8 8 8 7 7 6 5 5 4 4 5 5 5 5 5 5 4 3 3 2 2 2 1
2 3 4 6 7 9 10 10 11 12 14 14 14 14 14 13 13 12 11 10 10 9 9 8 8 7 7 7 6 6 6 5 5 4 4 4 4 4 4 4 4 4 4 4 3 3 3 3 3
3 1 1 4 5 6 8 8 11 12 13 13 14 14 14 14 13 12 12 11 10 9 9 8 7 7 6 6 5 5 5 5 4 4 3 3 3 3 3 3 3 4 4 4 4 4 4 4 5
4 3 1 2 3 5 6 7 9 12 12 13 14 14 13 14 13 13 12 11 10 10 9 8 7 6 6 5 5 5 5 5 4 4 3 3 3 3 3 3 3 4 5 5 5 5 5 6 6
4 3 2 2 2 3 4 5 8 10 11 12 13 13 13 13 13 12 12 12 11 10 10 9 7 7 6 6 5 5 5 5 4 4 4 3 3 3 4 4 4 5 6 6 6 6 6 7 7
7 7 6 5 4 4 4 3 4 8 10 12 12 12 12 12 12 12 12 11 11 10 10 10 8 8 7 7 5 5 5 5 5 5 4 3 3 4 4 5 6 6 7 8 8 8 8 8 8
10 10 9 7 5 5 5 7 4 5 8 10 10 11 12 12 11 11 11 11 11 11 10 9 9 8 8 8 7 7 6 5 5 5 4 4 4 4 5 5 6 7 8 8 9 10 9 9 9
12 11 10 7 5 7 6 7 8 7 8 9 10 10 11 11 11 11 10 10 11 11 10 9 9 8 8 7 7 7 7 7 6 6 6 5 4 5 6 6 7 7 8 9 9 10 10 9 9
13 13 12 9 8 8 7 6 9 8 8 8 9 9 9 10 10 10 10 10 11 10 10 9 9 8 8 8 7 7 7 7 7 6 6 6 6 6 6 6 7 8 8 9 9 10 10 10 10
15 14 11 10 9 9 8 6 8 8 7 7 8 9 8 9 10 10 10 10 10 10 10 9 9 9 8 8 8 8 8 8 8 7 7 6 6 7 7 8 8 9 9 9 9 10 10 10 10
16 15 11 11 11 10 7 7 9 8 8 8 8 8 8 8 8 9 9 9 9 10 10 9 9 9 8 8 8 8 8 9 9 8 8 7 7 7 8 9 9 10 9 9 10 10 10 10 10
18 16 13 12 10 8 8 8 8 9 10 8 7 7 7 7 8 8 9 9 9 9 10 10 9 9 8 8 9 9 9 9 9 9 8 8 8 9 9 9 10 9 9 10 10 11 11 11 10
18 17 15 14 11 10 9 9 10 10 10 9 7 6 7 8 8 8 9 9 9 9 9 10 10 9 9 8 9 9 9 9 9 9 9 9 9 10 10 10 10 10 10 10 10 11 10 10 11
20 17 17 16 14 13 11 11 13 12 11 10 9 8 7 7 8 8 8 8 8 9 10 10 10 9 9 9 9 9 10 10 10 10 10 10 10 10 10 10 10 10 10 11 11 11 11 11 11
23 21 20 18 16 13 11 13 14 13 13 11 11 10 8 7 8 8 8 9 9 9 10 10 10 9 10 10 10 10 9 9 10 11 11 11 11 11 11 11 11 11 11 11 11 11 12 12 12
23 22 20 19 18 16 13 13 13 13 12 11 11 10 8 8 8 8 8 9 9 9 10 10 10 10 10 10 10 10 9 10 10 11 11 12 12 12 12 12 12 12 12 12 12 13 12 12 13
Wind_Direction
68 66 61 54 50 41 39 41 45 46 46 46 47 54 60 59 56 49 55 61 60 58 61 64 67 70 78 84 84 85 90 96 98 99 105 114 115 115 114 114 114 109 108 110 115 121 120 122 124
70 66 58 49 42 33 34 41 46 45 42 43 48 55 57 58 58 54 59 66 64 59 60 64 67 69 71 78 83 87 92 97 101 100 99 107 114 113 114 114 111 107 107 108 112 115 120 121 123
69 65 59 47 34 31 36 39 41 43 42 44 49 52 56 59 61 59 60 64 64 60 59 65 66 68 69 77 82 84 91 98 102 103 104 108 110 111 112 110 108 107 106 105 110 116 120 122 124
69 62 56 47 35 36 38 40 42 41 40 44 48 52 56 59 61 64 65 66 65 62 62 65 70 70 69 72 78 84 89 97 100 103 104 105 107 108 107 106 107 108 105 102 107 113 118 121 120
67 62 56 44 35 38 38 40 39 41 39 44 48 49 53 58 61 66 68 69 68 64 63 66 72 73 70 73 76 82 89 96 98 102 104 107 106 105 105 106 107 107 105 102 104 109 112 115 115
66 57 50 43 39 43 40 42 38 40 44 45 50 49 52 57 63 64 65 66 65 67 67 68 71 73 76 78 78 82 90 96 100 102 101 103 105 106 106 104 104 105 107 106 106 107 109 111 110
68 61 55 40 39 46 43 44 42 40 41 45 49 51 54 57 60 62 60 60 63 67 67 67 71 74 80 81 81 85 90 91 95 95 97 102 103 107 108 105 105 104 103 103 106 108 109 110 111
69 65 51 33 36 44 44 45 45 44 45 46 49 53 57 59 59 62 62 60 59 63 67 67 69 76 81 84 83 86 86 87 88 91 96 98 99 105 109 108 108 107 104 103 103 107 108 108 111
67 69 57 38 39 43 43 44 45 46 47 48 50 53 54 56 57 59 61 61 60 61 65 67 66 72 80 83 83 86 87 88 89 90 95 97 99 101 107 109 108 106 105 103 100 103 106 106 106
59 71 59 47 48 47 43 44 42 41 41 43 49 52 53 55 55 57 58 57 58 59 62 65 67 70 76 80 85 89 93 93 92 88 89 89 91 91 95 102 104 103 102 101 99 99 100 101 102
55 64 54 49 47 49 49 47 43 40 39 41 45 48 51 54 55 56 57 55 55 57 61 63 64 68 71 73 80 88 90 89 88 90 91 91 88 86 88 95 99 99 99 100 97 93 94 93 94
67 65 59 58 52 51 50 49 45 42 42 41 43 45 48 50 51 53 55 54 54 55 60 63 63 64 67 69 72 76 81 84 86 86 86 88 90 84 85 92 96 100 101 98 96 87 87 90 92
71 66 60 55 53 50 49 51 44 42 41 40 40 43 48 51 51 50 51 52 54 56 59 62 61 62 64 65 66 69 74 77 81 84 85 79 85 82 78 82 79 84 87 86 86 89 98 96 97
83 67 61 56 51 44 46 46 43 40 40 40 41 41 42 47 49 50 50 52 53 56 58 59 60 57 60 60 59 60 67 72 72 72 72 69 67 67 66 71 64 68 70 74 75 68 66 70 64
69 62 56 51 43 33 35 41 37 38 38 38 41 41 41 44 46 50 51 51 53 54 54 54 58 56 53 51 52 50 55 60 61 62 61 57 51 52 63 65 61 62 58 58 46 29 12 347 336
83 48 24 42 33 23 27 27 27 35 37 37 39 41 41 43 44 44 48 50 51 53 51 48 51 50 47 44 42 39 43 51 51 49 47 43 39 41 49 52 47 41 36 31 22 6 347 330 318
187 231 4 17 20 16 16 14 17 28 33 36 39 41 42 41 42 42 45 47 46 47 45 43 44 44 42 41 37 34 33 35 37 36 34 32 31 33 35 33 26 22 13 4 351 339 326 320 317
185 187 260 348 355 1 9 11 10 25 30 33 37 38 38 38 41 41 41 40 40 40 39 38 38 32 27 29 31 30 25 20 19 21 17 13 14 15 6 3 356 354 352 347 339 328 319 317 317
200 221 231 264 306 315 353 2 359 14 20 25 30 32 31 32 35 36 36 37 37 36 33 32 31 29 28 26 26 25 20 14 7 2 5 1 352 349 344 341 339 336 336 333 329 324 321 318 316
209 221 223 239 270 309 319 326 330 346 5 13 20 24 25 26 30 31 31 31 31 29 29 28 32 32 26 21 23 15 8 9 5 1 0 357 343 337 337 332 330 330 329 327 326 318 311 309 309
213 223 213 222 254 284 303 313 312 325 356 358 9 15 16 20 23 25 27 26 27 27 28 29 31 27 24 22 22 18 12 10 4 2 357 354 351 344 339 334 333 330 327 329 331 329 318 313 310
219 221 217 216 244 265 281 295 312 326 342 352 1 6 10 16 20 21 22 24 25 25 26 27 28 25 24 25 23 17 14 14 9 6 5 1 351 344 339 337 333 332 331 331 332 334 329 321 312
214 219 220 210 223 241 254 267 296 303 316 339 353 357 5 11 16 20 20 21 22 23 23 24 24 23 21 21 19 17 12 11 9 5 2 3 357 349 345 343 336 330 330 331 331 333 330 324 317
214 213 209 210 220 239 244 251 279 294 306 322 336 345 355 4 7 12 16 18 18 20 22 21 19 18 18 18 17 16 13 9 11 4 357 353 349 345 340 338 334 330 327 328 330 332 328 325 323
215 206 211 222 226 236 240 248 259 283 283 300 316 328 343 354 0 360 8 13 11 15 18 17 15 14 14 13 13 13 11 9 6 2 359 353 348 342 338 337 334 331 327 327 329 329 329 329 328
218 206 215 228 236 245 240 242 260 273 279 290 304 317 327 337 351 352 357 2 3 6 11 10 9 8 8 8 7 6 6 5 3 360 357 353 348 343 336 335 336 336 334 331 328 327 327 326 323
216 212 217 232 238 237 237 249 263 267 274 283 289 300 316 331 344 342 346 350 354 357 358 358 360 358 357 355 353 354 356 358 359 355 353 350 347 344 341 335 336 337 335 333 329 329 328 324 321
213 217 221 219 227 236 237 240 241 257 270 280 283 289 301 317 332 341 345 343 342 346 348 348 347 348 353 348 346 345 345 348 350 349 346 344 342 341 339 336 336 334 331 331 333 332 330 326 322
215 214 219 220 220 231 243 245 240 256 274 275 280 287 291 302 314 329 337 342 343 345 348 348 347 348 348 346 346 345 345 349 349 347 346 343 342 340 339 337 333 332 331 333 335 332 329 326 322
224 218 218 221 219 221 232 248 247 257 267 270 273 279 285 292 302 317 323 333 337 338 339 342 344 343 341 340 342 344 345 344 343 342 342 343 342 339 336 335 334 334 335 332 331 331 329 325 324
Height
5891 5890 5888 5887 5886 5887 5885 5884 5883 5881 5880 5879 5877 5876 5875 5874 5875 5875 5872 5870 5870 5869 5868 5868 5868 5868 5867 5867 5867 5866 5865 5865 5865 5866 5866 5865 5866 5867 5867 5868 5869 5869 5870 5870 5870 5871 5873 5874 5876
5895 5893 5890 5890 5891 5889 5888 5886 5885 5884 5882 5880 5879 5878 5877 5876 5875 5874 5873 5872 5872 5871 5870 5870 5870 5869 5869 5869 5869 5868 5868 5867 5867 5868 5868 5868 5868 5869 5869 5870 5871 5871 5872 5872 5872 5873 5875 5876 5877
5897 5895 5893 5895 5895 5892 5891 5889 5887 5885 5884 5883 5881 5880 5879 5878 5877 5876 5875 5874 5874 5873 5873 5872 5872 5871 5871 5871 5870 5870 5870 5870 5870 5870 5870 5871 5871 5871 5872 5872 5873 5873 5874 5874 5873 5874 5875 5877 5879
5899 5896 5899 5901 5898 5895 5893 5891 5889 5888 5886 5885 5884 5882 5880 5880 5879 5878 5877 5877 5876 5875 5875 5874 5874 5873 5873 5873 5872 5872 5872 5872 5872 5872 5872 5872 5873 5873 5874 5875 5875 5876 5876 5875 5875 5875 5877 5878 5880
5899 5901 5904 5903 5900 5898 5896 5894 5892 5890 5888 5887 5886 5884 5883 5882 5881 5880 5879 5879 5878 5877 5877 5876 5875 5875 5875 5875 5875 5874 5874 5874 5874 5874 5874 5875 5875 5876 5876 5877 5878 5878 5878 5877 5877 5877 5878 5880 5882
5903 5906 5907 5906 5903 5901 5899 5896 5894 5892 5890 5889 5888 5886 5885 5884 5883 5882 5882 5881 5880 5880 5879 5878 5877 5877 5877 5877 5877 5876 5876 5877 5877 5877 5877 5878 5878 5879 5879 5879 5880 5880 5880 5880 5880 5880 5881 5882 5884
5909 5909 5910 5909 5906 5904 5902 5899 5897 5895 5893 5891 5890 5889 5888 5887 5886 5885 5884 5883 5882 5882 5881 5881 5880 5880 5879 5879 5879 5879 5879 5879 5880 5880 5880 5880 5881 5881 5882 5882 5882 5882 5883 5883 5883 5883 5884 5885 5886
5914 5914 5913 5912 5909 5907 5905 5902 5900 5898 5896 5894 5893 5891 5890 5889 5888 5887 5886 5885 5885 5884 5883 5883 5882 5882 5881 5881 5882 5882 5882 5882 5882 5882 5882 5883 5883 5884 5884 5884 5884 5885 5885 5886 5886 5887 5887 5888 5888
5917 5917 5916 5914 5912 5910 5907 5905 5903 5900 5899 5897 5895 5894 5893 5892 5890 5889 5889 5888 5887 5886 5885 5885 5884 5884 5884 5884 5884 5884 5884 5884 5884 5885 5885 5885 5886 5886 5886 5886 5887 5887 5887 5888 5888 5889 5890 5890 5890
5920 5919 5918 5916 5914 5912 5910 5908 5905 5903 5901 5900 5898 5897 5895 5894 5893 5892 5891 5890 5889 5889 5888 5887 5887 5886 5887 5887 5886 5886 5887 5887 5887 5887 5888 5888 5888 5888 5889 5889 5889 5889 5890 5890 5890 5891 5891 5892 5892
5922 5921 5919 5918 5916 5914 5912 5911 5909 5906 5905 5903 5901 5899 5898 5896 5895 5894 5893 5892 5892 5891 5890 5890 5889 5889 5889 5889 5889 5889 5889 5889 5889 5890 5890 5890 5890 5890 5890 5891 5891 5891 5892 5892 5892 5892 5893 5893 5893
5924 5923 5921 5920 5918 5917 5915 5914 5912 5909 5908 5906 5903 5902 5900 5898 5897 5896 5896 5895 5894 5893 5892 5892 5892 5891 5891 5891 5891 5891 5891 5891 5892 5892 5892 5891 5892 5892 5892 5892 5893 5893 5893 5894 5894 5894 5894 5895 5894
5925 5924 5923 5921 5920 5919 5917 5916 5914 5912 5910 5908 5906 5904 5902 5901 5900 5899 5898 5897 5896 5895 5895 5895 5894 5894 5894 5894 5894 5893 5894 5894 5894 5894 5893 5893 5894 5893 5894 5894 5894 5895 5895 5895 5895 5895 5896 5896 5896
5926 5925 5924 5923 5922 5920 5919 5917 5916 5914 5912 5910 5908 5906 5904 5903 5902 5901 5900 5899 5899 5898 5897 5897 5897 5896 5896 5896 5896 5896 5896 5895 5895 5895 5895 5895 5895 5895 5896 5896 5895 5896 5896 5896 5896 5896 5896 5896 5896
5926 5926 5925 5924 5924 5922 5921 5920 5917 5916 5914 5912 5911 5909 5908 5906 5905 5904 5903 5902 5901 5900 5900 5899 5899 5899 5898 5898 5898 5898 5897 5897 5897 5897 5897 5897 5897 5897 5897 5897 5897 5897 5897 5897 5897 5897 5897 5897 5896
5927 5927 5927 5926 5926 5924 5924 5922 5920 5918 5917 5915 5913 5912 5910 5909 5907 5906 5905 5904 5903 5903 5902 5901 5901 5901 5900 5900 5899 5899 5899 5899 5899 5898 5898 5898 5898 5898 5898 5898 5898 5898 5898 5897 5897 5897 5897 5896 5896
5927 5928 5928 5929 5928 5927 5926 5923 5922 5920 5919 5917 5916 5914 5913 5911 5910 5908 5907 5906 5905 5904 5904 5903 5903 5902 5902 5901 5901 5901 5900 5900 5900 5899 5899 5899 5899 5899 5899 5899 5899 5899 5898 5898 5898 5897 5897 5896 5896
5928 5928 5929 5930 5930 5929 5927 5925 5923 5922 5921 5920 5918 5916 5915 5913 5912 5910 5909 5908 5907 5906 5905 5905 5904 5904 5903 5903 5902 5902 5902 5901 5901 5901 5900 5900 5900 5900 5899 5899 5899 5899 5899 5898 5897 5897 5896 5896 5895
5929 5930 5931 5931 5931 5930 5929 5927 5925 5924 5923 5922 5920 5918 5917 5915 5914 5913 5911 5910 5909 5908 5907 5906 5905 5905 5904 5904 5903 5903 5902 5902 5902 5902 5901 5901 5900 5900 5900 5899 5899 5899 5898 5898 5897 5896 5895 5895 5894
5929 5931 5932 5932 5931 5930 5929 5927 5926 5925 5925 5923 5922 5920 5919 5917 5916 5914 5913 5912 5910 5909 5908 5907 5906 5906 5905 5905 5904 5904 5903 5903 5902 5902 5901 5901 5900 5900 5900 5899 5899 5898 5898 5897 5896 5895 5894 5893 5893
5928 5929 5931 5931 5931 5930 5930 5928 5927 5924 5925 5925 5923 5922 5920 5919 5917 5916 5915 5913 5912 5911 5910 5909 5908 5907 5907 5906 5905 5905 5904 5903 5903 5902 5902 5901 5900 5900 5899 5899 5898 5898 5897 5896 5895 5894 5893 5892 5891
5926 5927 5929 5930 5930 5930 5931 5929 5928 5925 5925 5924 5923 5923 5921 5920 5919 5917 5916 5915 5913 5912 5911 5910 5909 5908 5908 5907 5906 5906 5905 5904 5903 5902 5902 5901 5900 5900 5899 5898 5897 5897 5896 5895 5894 5892 5891 5890 5890
5924 5925 5927 5929 5930 5929 5930 5930 5930 5926 5925 5924 5924 5923 5922 5921 5920 5918 5917 5916 5915 5913 5912 5911 5910 5909 5909 5908 5907 5906 5905 5904 5903 5902 5902 5901 5900 5899 5899 5898 5897 5896 5895 5894 5893 5891 5890 5889 5888
5921 5923 5925 5926 5928 5929 5929 5930 5929 5927 5925 5925 5925 5924 5923 5922 5921 5919 5918 5917 5916 5915 5913 5912 5911 5910 5909 5908 5908 5907 5906 5904 5903 5902 5902 5901 5900 5899 5898 5897 5896 5895 5894 5893 5892 5890 5889 5888 5886
5918 5921 5923 5925 5926 5927 5929 5929 5928 5927 5926 5926 5925 5924 5924 5922 5921 5920 5919 5918 5916 5915 5914 5913 5912 5911 5910 5909 5908 5907 5906 5905 5903 5902 5901 5901 5900 5899 5897 5896 5895 5894 5893 5892 5891 5889 5888 5886 5885
5915 5919 5922 5924 5925 5926 5927 5927 5928 5927 5926 5926 5925 5924 5923 5922 5921 5920 5919 5918 5917 5916 5915 5914 5912 5911 5910 5909 5908 5907 5906 5905 5904 5903 5902 5900 5899 5898 5897 5895 5894 5893 5891 5890 5889 5888 5886 5885 5884
5913 5915 5920 5923 5924 5925 5926 5926 5926 5925 5925 5925 5925 5924 5923 5922 5921 5920 5919 5918 5917 5916 5915 5914 5912 5911 5910 5909 5908 5907 5906 5905 5904 5903 5901 5900 5899 5897 5896 5895 5893 5892 5890 5889 5888 5886 5885 5883 5882
5910 5913 5916 5918 5920 5923 5924 5924 5924 5923 5923 5923 5923 5923 5921 5921 5921 5920 5919 5918 5917 5916 5915 5913 5912 5911 5910 5909 5908 5906 5905 5904 5903 5902 5901 5900 5898 5896 5895 5894 5892 5891 5889 5888 5886 5885 5883 5882 5880
5906 5909 5912 5915 5918 5920 5922 5924 5920 5920 5922 5921 5921 5921 5921 5920 5920 5919 5918 5917 5916 5916 5914 5913 5912 5911 5910 5909 5907 5906 5905 5904 5903 5902 5900 5899 5897 5896 5894 5893 5891 5890 5888 5886 5885 5883 5882 5880 5878
5901 5905 5909 5912 5914 5916 5918 5921 5918 5919 5919 5920 5919 5919 5918 5919 5918 5918 5918 5917 5916 5915 5914 5913 5912 5910 5909 5908 5907 5905 5904 5903 5902 5901 5899 5898 5896 5895 5893 5892 5890 5888 5887 5885 5883 5882 5880 5878 5876